{"data":{"norad_id":52313,"intl_designator":"2022-041BE","name":"STARLINK-3749","alt_names":[],"object_type":"PAYLOAD","status":"ACTIVE","operator":null,"country":"US","launch_date":"2022-04-21","launch_site_code":"AFETR","launch_vehicle":null,"mission":null,"orbit_class":"UNKNOWN","rcs_meters":null,"size_class":null,"mass_kg":null,"dimensions":null,"purposes":["comms"],"wikipedia_slug":null,"has_3d_model":false,"image_url":null,"decayed_at":null,"tle_current":{"epoch":"2026-09-19T14:37:41.238048Z","epoch_age_seconds":136633,"freshness":"FRESH","line1":"1 52313U 22041BE  26262.60950507  .00000034  00000+0  12377-4 0  9993","line2":"2 52313  53.1621 286.0098 0001301  89.8298 270.2854 15.33549709245315","mean_motion":15.33549709,"eccentricity":0.0001301,"inclination_deg":53.1621,"raan_deg":286.0098,"arg_perigee_deg":89.8298,"mean_anomaly_deg":270.2854,"bstar":1.2377e-5,"rev_number":24531,"period_min":93.899792849819,"perigee_km":464.34132962805,"apogee_km":466.12197415127,"semimajor_km":6843.3686518897,"source":"CELESTRAK","updated_at":"2026-09-20T09:00:40.020711Z"}}}